JST500 YMML-YSSY

Flight info

Callsign JST500
Flight time 1h 8m
Altitude 39000
Route DOSEL Y59 RIVET
Aircraft A320/M-SDE3FGHIRWY/LB1

Departure

Time 2026-04-25 20:11
Airport Melbourne Airport (YMML)

Arrival

Time 2026-04-25 21:20
Airport Sydney Kingsford Smith International Airport (YSSY)
Time Latitude Longitude Altitude Speed Heading
2026-04-25 19:41 -37.67275 144.84566 384 ft 0 kts 172°
2026-04-25 20:01 -37.67272 144.84565 384 ft 3 kts 172°
2026-04-25 20:01 -37.67247 144.84561 385 ft 4 kts 178°
2026-04-25 20:02 -37.67221 144.84564 385 ft 4 kts 207°
2026-04-25 20:02 -37.67204 144.84584 386 ft 3 kts 259°
2026-04-25 20:02 -37.67203 144.84592 386 ft 1 kts 261°
2026-04-25 20:05 -37.67204 144.84588 386 ft 2 kts 261°
2026-04-25 20:05 -37.67208 144.84552 386 ft 6 kts 261°
2026-04-25 20:05 -37.67217 144.84481 384 ft 10 kts 261°
2026-04-25 20:06 -37.67239 144.84458 384 ft 0 kts 190°
2026-04-25 20:06 -37.67241 144.84457 384 ft 2 kts 193°
2026-04-25 20:06 -37.67242 144.84449 383 ft 0 kts 256°
2026-04-25 20:06 -37.67238 144.84443 383 ft 1 kts 295°
2026-04-25 20:07 -37.67227 144.84427 384 ft 4 kts 310°
2026-04-25 20:07 -37.67205 144.84390 384 ft 7 kts 296°
2026-04-25 20:07 -37.67209 144.84316 382 ft 11 kts 258°
2026-04-25 20:07 -37.67278 144.84283 380 ft 14 kts 172°
2026-04-25 20:08 -37.67388 144.84304 378 ft 18 kts 172°
2026-04-25 20:08 -37.67525 144.84328 375 ft 22 kts 172°
2026-04-25 20:08 -37.67688 144.84360 369 ft 26 kts 171°
2026-04-25 20:08 -37.67880 144.84399 364 ft 27 kts 171°
2026-04-25 20:09 -37.68059 144.84428 357 ft 28 kts 172°
2026-04-25 20:09 -37.68267 144.84466 352 ft 32 kts 171°
2026-04-25 20:09 -37.68413 144.84410 353 ft 23 kts 209°
2026-04-25 20:09 -37.68530 144.84304 341 ft 14 kts 238°
2026-04-25 20:10 -37.68559 144.84176 347 ft 16 kts 262°
2026-04-25 20:10 -37.68506 144.84086 349 ft 14 kts 347°
2026-04-25 20:10 -37.68496 144.84083 356 ft 4 kts 347°
2026-04-25 20:10 -37.68242 144.84038 356 ft 71 kts 353°
2026-04-25 20:11 -37.67554 144.83910 369 ft 125 kts 352°
2026-04-25 20:11 -37.66555 144.83760 488 ft 158 kts 354°
2026-04-25 20:11 -37.65429 144.83602 992 ft 169 kts 353°
2026-04-25 20:11 -37.64266 144.83387 1754 ft 167 kts 352°
2026-04-25 20:12 -37.63082 144.83139 2318 ft 182 kts 351°
2026-04-25 20:12 -37.61747 144.82858 2748 ft 206 kts 350°
2026-04-25 20:12 -37.60242 144.82546 3206 ft 230 kts 350°
2026-04-25 20:12 -37.59723 144.82464 3420 ft 236 kts 355°
2026-04-25 20:13 -37.56991 144.83520 4758 ft 257 kts 22°
2026-04-25 20:13 -37.55369 144.84507 5537 ft 268 kts 22°
2026-04-25 20:13 -37.53669 144.85552 6360 ft 274 kts 22°
2026-04-25 20:13 -37.51937 144.86616 7227 ft 279 kts 22°
2026-04-25 20:14 -37.50179 144.87691 8073 ft 283 kts 23°
2026-04-25 20:14 -37.48394 144.88780 8934 ft 287 kts 23°
2026-04-25 20:14 -37.46584 144.89883 9800 ft 290 kts 24°
2026-04-25 20:14 -37.44752 144.91074 10351 ft 307 kts 31°
2026-04-25 20:15 -37.43052 144.92865 10589 ft 332 kts 46°
2026-04-25 20:15 -37.41628 144.95230 11118 ft 343 kts 54°
2026-04-25 20:15 -37.40274 144.97732 11790 ft 348 kts 53°
2026-04-25 20:15 -37.38874 145.00238 12513 ft 352 kts 52°
2026-04-25 20:16 -37.37447 145.02757 13285 ft 354 kts 52°
2026-04-25 20:16 -37.36003 145.05287 14029 ft 358 kts 51°
2026-04-25 20:16 -37.34544 145.07836 14682 ft 361 kts 51°
2026-04-25 20:16 -37.33075 145.10408 15347 ft 363 kts 51°
2026-04-25 20:17 -37.31602 145.12995 16005 ft 365 kts 51°
2026-04-25 20:17 -37.30122 145.15602 16667 ft 367 kts 51°
2026-04-25 20:17 -37.28634 145.18221 17338 ft 370 kts 51°
2026-04-25 20:17 -37.27137 145.20859 18001 ft 372 kts 51°
2026-04-25 20:18 -37.25650 145.23479 18658 ft 374 kts 51°
2026-04-25 20:18 -37.24131 145.26152 19257 ft 377 kts 51°
2026-04-25 20:18 -37.22604 145.28837 19843 ft 380 kts 51°
2026-04-25 20:18 -37.21060 145.31552 20424 ft 383 kts 51°
2026-04-25 20:19 -37.19504 145.34283 21017 ft 386 kts 51°
2026-04-25 20:19 -37.17935 145.37032 21595 ft 389 kts 51°
2026-04-25 20:19 -37.16351 145.39801 22153 ft 392 kts 51°
2026-04-25 20:19 -37.14757 145.42586 22712 ft 395 kts 51°
2026-04-25 20:20 -37.13148 145.45390 23251 ft 397 kts 51°
2026-04-25 20:20 -37.11529 145.48211 23797 ft 400 kts 51°
2026-04-25 20:20 -37.09894 145.51057 24242 ft 403 kts 51°
2026-04-25 20:20 -37.08253 145.53916 24662 ft 406 kts 51°
2026-04-25 20:21 -37.06602 145.56796 25076 ft 409 kts 51°
2026-04-25 20:21 -37.04938 145.59699 25484 ft 412 kts 52°
2026-04-25 20:21 -37.03256 145.62625 25879 ft 415 kts 52°
2026-04-25 20:21 -37.01564 145.65562 26267 ft 418 kts 52°
2026-04-25 20:22 -36.99854 145.68517 26645 ft 421 kts 52°
2026-04-25 20:22 -36.99273 145.69520 26767 ft 422 kts 52°
2026-04-25 20:22 -36.96392 145.74493 27377 ft 427 kts 52°
2026-04-25 20:22 -36.94644 145.77513 27743 ft 430 kts 52°
2026-04-25 20:23 -36.92885 145.80552 28103 ft 433 kts 52°
2026-04-25 20:23 -36.91108 145.83620 28454 ft 437 kts 53°
2026-04-25 20:23 -36.89322 145.86704 28813 ft 440 kts 53°
2026-04-25 20:23 -36.87522 145.89809 29156 ft 443 kts 52°
2026-04-25 20:24 -36.85707 145.92935 29499 ft 446 kts 52°
2026-04-25 20:24 -36.83878 145.96078 29838 ft 449 kts 52°
2026-04-25 20:24 -36.82032 145.99246 30175 ft 453 kts 53°
2026-04-25 20:24 -36.80174 146.02435 30487 ft 456 kts 53°
2026-04-25 20:25 -36.78306 146.05643 30760 ft 459 kts 53°
2026-04-25 20:25 -36.76423 146.08871 31030 ft 462 kts 53°
2026-04-25 20:25 -36.74529 146.12115 31320 ft 464 kts 53°
2026-04-25 20:25 -36.72655 146.15320 31707 ft 463 kts 52°
2026-04-25 20:26 -36.70754 146.18564 32111 ft 463 kts 52°
2026-04-25 20:26 -36.68853 146.21801 32511 ft 463 kts 52°
2026-04-25 20:26 -36.66953 146.25037 32896 ft 463 kts 52°
2026-04-25 20:26 -36.65050 146.28280 33293 ft 463 kts 52°
2026-04-25 20:27 -36.63147 146.31520 33707 ft 463 kts 52°
2026-04-25 20:27 -36.61248 146.34749 34124 ft 462 kts 52°
2026-04-25 20:27 -36.59351 146.37972 34525 ft 461 kts 52°
2026-04-25 20:27 -36.57456 146.41188 34900 ft 460 kts 52°
2026-04-25 20:28 -36.55566 146.44394 35274 ft 459 kts 52°
2026-04-25 20:28 -36.53680 146.47588 35648 ft 457 kts 52°
2026-04-25 20:28 -36.51799 146.50772 36011 ft 456 kts 52°
2026-04-25 20:28 -36.49921 146.53947 36384 ft 455 kts 52°
2026-04-25 20:29 -36.48682 146.56040 36609 ft 454 kts 52°
2026-04-25 20:29 -36.46813 146.59197 36928 ft 453 kts 52°
2026-04-25 20:29 -36.44944 146.62347 37255 ft 452 kts 52°
2026-04-25 20:29 -36.42451 146.66543 37697 ft 450 kts 52°
2026-04-25 20:30 -36.41221 146.68613 37910 ft 450 kts 51°
2026-04-25 20:30 -36.39366 146.71729 38230 ft 448 kts 51°
2026-04-25 20:30 -36.37514 146.74839 38557 ft 447 kts 51°
2026-04-25 20:30 -36.35067 146.78945 38945 ft 446 kts 51°
2026-04-25 20:31 -36.33823 146.81034 39117 ft 445 kts 51°
2026-04-25 20:31 -36.31979 146.84124 39283 ft 445 kts 51°
2026-04-25 20:31 -36.28305 146.90265 39334 ft 446 kts 51°
2026-04-25 20:32 -36.24580 146.96483 39345 ft 446 kts 51°
2026-04-25 20:32 -36.20899 147.02616 39343 ft 447 kts 51°
2026-04-25 20:33 -36.17190 147.08793 39347 ft 447 kts 51°
2026-04-25 20:33 -36.14075 147.13969 39347 ft 447 kts 51°
2026-04-25 20:34 -36.09779 147.21098 39361 ft 448 kts 51°
2026-04-25 20:34 -36.06054 147.27271 39360 ft 448 kts 51°
2026-04-25 20:35 -36.02317 147.33436 39367 ft 448 kts 51°
2026-04-25 20:35 -35.98581 147.39609 39374 ft 448 kts 51°
2026-04-25 20:36 -35.94839 147.45764 39375 ft 448 kts 51°
2026-04-25 20:36 -35.91099 147.51912 39383 ft 448 kts 51°
2026-04-25 20:37 -35.87356 147.58061 39385 ft 448 kts 51°
2026-04-25 20:37 -35.83601 147.64202 39391 ft 448 kts 51°
2026-04-25 20:38 -35.79868 147.70294 39386 ft 448 kts 51°
2026-04-25 20:38 -35.76082 147.76465 39393 ft 449 kts 51°
2026-04-25 20:39 -35.72341 147.82556 39398 ft 449 kts 51°
2026-04-25 20:39 -35.69211 147.87643 39398 ft 448 kts 51°
2026-04-25 20:40 -35.64807 147.94796 39395 ft 448 kts 51°
2026-04-25 20:40 -35.61031 148.00908 39388 ft 449 kts 51°
2026-04-25 20:41 -35.57253 148.07014 39399 ft 449 kts 51°
2026-04-25 20:41 -35.53470 148.13122 39397 ft 449 kts 51°
2026-04-25 20:42 -35.49711 148.19184 39391 ft 449 kts 51°
2026-04-25 20:42 -35.45921 148.25289 39394 ft 450 kts 51°
2026-04-25 20:43 -35.42118 148.31385 39396 ft 450 kts 51°
2026-04-25 20:43 -35.38311 148.37479 39392 ft 450 kts 51°
2026-04-25 20:44 -35.34501 148.43591 39389 ft 451 kts 51°
2026-04-25 20:44 -35.30690 148.49684 39392 ft 451 kts 51°
2026-04-25 20:45 -35.26869 148.55775 39399 ft 451 kts 51°
2026-04-25 20:45 -35.23041 148.61856 39412 ft 451 kts 51°
2026-04-25 20:46 -35.19220 148.67937 39397 ft 451 kts 51°
2026-04-25 20:46 -35.15413 148.73980 39410 ft 451 kts 51°
2026-04-25 20:47 -35.11580 148.80041 39413 ft 451 kts 51°
2026-04-25 20:47 -35.07744 148.86097 39427 ft 450 kts 51°
2026-04-25 20:48 -35.03915 148.92146 39415 ft 450 kts 51°
2026-04-25 20:48 -35.02005 148.95163 39148 ft 449 kts 51°
2026-04-25 20:48 -35.00098 148.98171 38554 ft 448 kts 51°
2026-04-25 20:49 -34.98185 149.01182 37921 ft 449 kts 51°
2026-04-25 20:49 -34.96264 149.04200 37259 ft 450 kts 51°
2026-04-25 20:49 -34.94343 149.07214 36604 ft 450 kts 51°
2026-04-25 20:49 -34.92420 149.10233 35955 ft 451 kts 51°
2026-04-25 20:50 -34.90493 149.13259 35288 ft 453 kts 52°
2026-04-25 20:50 -34.88559 149.16292 34600 ft 454 kts 52°
2026-04-25 20:50 -34.86641 149.19291 33963 ft 454 kts 51°
2026-04-25 20:50 -34.84711 149.22306 33443 ft 449 kts 51°
2026-04-25 20:51 -34.82791 149.25304 32945 ft 445 kts 51°
2026-04-25 20:51 -34.80894 149.28266 32456 ft 441 kts 51°
2026-04-25 20:51 -34.79015 149.31197 31978 ft 436 kts 51°
2026-04-25 20:51 -34.77157 149.34091 31501 ft 432 kts 51°
2026-04-25 20:52 -34.75317 149.36959 31028 ft 428 kts 51°
2026-04-25 20:52 -34.74156 149.38893 30719 ft 426 kts 56°
2026-04-25 20:52 -34.72251 149.43021 30072 ft 420 kts 61°
2026-04-25 20:52 -34.70891 149.46149 29540 ft 417 kts 61°
2026-04-25 20:53 -34.69541 149.49247 29033 ft 413 kts 61°
2026-04-25 20:53 -34.68201 149.52316 28529 ft 409 kts 61°
2026-04-25 20:53 -34.66872 149.55359 28036 ft 406 kts 61°
2026-04-25 20:53 -34.65553 149.58377 27573 ft 403 kts 61°
2026-04-25 20:54 -34.64241 149.61372 27126 ft 400 kts 61°
2026-04-25 20:54 -34.62935 149.64347 26699 ft 396 kts 61°
2026-04-25 20:54 -34.61641 149.67298 26275 ft 394 kts 61°
2026-04-25 20:54 -34.60357 149.70221 25867 ft 391 kts 62°
2026-04-25 20:55 -34.59095 149.73099 25482 ft 389 kts 62°
2026-04-25 20:55 -34.57829 149.75983 25106 ft 386 kts 61°
2026-04-25 20:55 -34.56568 149.78847 24733 ft 384 kts 61°
2026-04-25 20:55 -34.55314 149.81695 24348 ft 381 kts 61°
2026-04-25 20:56 -34.54071 149.84523 23957 ft 379 kts 61°
2026-04-25 20:56 -34.52837 149.87328 23503 ft 376 kts 61°
2026-04-25 20:56 -34.51607 149.90118 23044 ft 374 kts 62°
2026-04-25 20:56 -34.50382 149.92896 22578 ft 371 kts 62°
2026-04-25 20:57 -34.49167 149.95647 22103 ft 369 kts 62°
2026-04-25 20:57 -34.47958 149.98381 21639 ft 367 kts 61°
2026-04-25 20:57 -34.46754 150.01102 21171 ft 365 kts 61°
2026-04-25 20:57 -34.45559 150.03805 20712 ft 363 kts 61°
2026-04-25 20:58 -34.44368 150.06492 20249 ft 361 kts 61°
2026-04-25 20:58 -34.43179 150.09162 19799 ft 359 kts 61°
2026-04-25 20:58 -34.41998 150.11815 19353 ft 357 kts 61°
2026-04-25 20:58 -34.40825 150.14460 18918 ft 355 kts 61°
2026-04-25 20:59 -34.39658 150.17089 18455 ft 354 kts 61°
2026-04-25 20:59 -34.38494 150.19706 17963 ft 352 kts 61°
2026-04-25 20:59 -34.37335 150.22305 17501 ft 350 kts 61°
2026-04-25 20:59 -34.36184 150.24886 17051 ft 347 kts 61°
2026-04-25 21:00 -34.35043 150.27446 16606 ft 345 kts 61°
2026-04-25 21:00 -34.34674 150.28272 16460 ft 344 kts 61°
2026-04-25 21:00 -34.31675 150.34994 15331 ft 338 kts 61°
2026-04-25 21:01 -34.30545 150.37512 14909 ft 335 kts 61°
2026-04-25 21:01 -34.29449 150.39959 14505 ft 334 kts 61°
2026-04-25 21:01 -34.28344 150.42417 14082 ft 332 kts 61°
2026-04-25 21:01 -34.27247 150.44861 13635 ft 330 kts 61°
2026-04-25 21:02 -34.26161 150.47292 13203 ft 328 kts 61°
2026-04-25 21:02 -34.25081 150.49707 12759 ft 326 kts 62°
2026-04-25 21:02 -34.24005 150.52116 12324 ft 324 kts 62°
2026-04-25 21:02 -34.22937 150.54507 11910 ft 322 kts 61°
2026-04-25 21:03 -34.21875 150.56882 11505 ft 321 kts 61°
2026-04-25 21:03 -34.20814 150.59243 11179 ft 318 kts 61°
2026-04-25 21:03 -34.19756 150.61597 10942 ft 319 kts 62°
2026-04-25 21:03 -34.18700 150.63948 10694 ft 318 kts 62°
2026-04-25 21:04 -34.17647 150.66296 10460 ft 317 kts 62°
2026-04-25 21:04 -34.16600 150.68626 10155 ft 315 kts 62°
2026-04-25 21:04 -34.15577 150.70899 9894 ft 308 kts 62°
2026-04-25 21:04 -34.14573 150.73135 9764 ft 297 kts 62°
2026-04-25 21:05 -34.13599 150.75299 9532 ft 290 kts 62°
2026-04-25 21:05 -34.12637 150.77429 9212 ft 288 kts 61°
2026-04-25 21:05 -34.11682 150.79544 8877 ft 286 kts 61°
2026-04-25 21:05 -34.10731 150.81649 8541 ft 285 kts 61°
2026-04-25 21:06 -34.09786 150.83743 8199 ft 284 kts 61°
2026-04-25 21:06 -34.08847 150.85828 7875 ft 283 kts 61°
2026-04-25 21:06 -34.07912 150.87907 7546 ft 281 kts 61°
2026-04-25 21:06 -34.07294 150.89277 7330 ft 281 kts 60°
2026-04-25 21:07 -34.06050 150.92037 6910 ft 279 kts 60°
2026-04-25 21:07 -34.05134 150.94062 6580 ft 278 kts 60°
2026-04-25 21:07 -34.04212 150.96102 6267 ft 276 kts 61°
2026-04-25 21:07 -34.03534 150.98241 6032 ft 272 kts 79°
2026-04-25 21:08 -34.03530 151.00535 6009 ft 276 kts 101°
2026-04-25 21:08 -34.04197 151.02695 5978 ft 277 kts 121°
2026-04-25 21:08 -34.05415 151.04474 5858 ft 276 kts 134°
2026-04-25 21:08 -34.06729 151.06117 5678 ft 275 kts 136°
2026-04-25 21:09 -34.10042 151.08273 5033 ft 272 kts 168°
2026-04-25 21:09 -34.11888 151.08740 4693 ft 271 kts 169°
2026-04-25 21:09 -34.13730 151.09211 4333 ft 271 kts 168°
2026-04-25 21:10 -34.15578 151.09689 3955 ft 273 kts 168°
2026-04-25 21:10 -34.17436 151.10169 3606 ft 273 kts 167°
2026-04-25 21:10 -34.19289 151.10650 3285 ft 272 kts 167°
2026-04-25 21:10 -34.21104 151.11254 3029 ft 268 kts 152°
2026-04-25 21:11 -34.22492 151.12636 2994 ft 251 kts 121°
2026-04-25 21:11 -34.23320 151.14397 2999 ft 232 kts 113°
2026-04-25 21:11 -34.24001 151.16098 3001 ft 218 kts 111°
2026-04-25 21:11 -34.24416 151.17819 3005 ft 212 kts 93°
2026-04-25 21:12 -34.24519 151.19591 3007 ft 210 kts 88°
2026-04-25 21:12 -34.24568 151.21296 3002 ft 200 kts 85°
2026-04-25 21:12 -34.24232 151.22861 2999 ft 190 kts 57°
2026-04-25 21:12 -34.23994 151.23309 2999 ft 186 kts 48°
2026-04-25 21:13 -34.22155 151.24438 3003 ft 182 kts 359°
2026-04-25 21:13 -34.20908 151.24227 3005 ft 184 kts 351°
2026-04-25 21:13 -34.19648 151.23966 3004 ft 183 kts 351°
2026-04-25 21:13 -34.18389 151.23710 3005 ft 184 kts 352°
2026-04-25 21:14 -34.17140 151.23456 3031 ft 175 kts 351°
2026-04-25 21:14 -34.15984 151.23176 2907 ft 166 kts 349°
2026-04-25 21:14 -34.14883 151.22886 2777 ft 157 kts 349°
2026-04-25 21:14 -34.13844 151.22611 2667 ft 147 kts 349°
2026-04-25 21:15 -34.12875 151.22355 2571 ft 138 kts 349°
2026-04-25 21:15 -34.11944 151.22109 2483 ft 136 kts 349°
2026-04-25 21:15 -34.11023 151.21866 2406 ft 136 kts 349°
2026-04-25 21:15 -34.10117 151.21629 2322 ft 135 kts 349°
2026-04-25 21:16 -34.09199 151.21389 2234 ft 134 kts 349°
2026-04-25 21:16 -34.08320 151.21159 2158 ft 132 kts 349°
2026-04-25 21:16 -34.07422 151.20925 2069 ft 131 kts 349°
2026-04-25 21:16 -34.06532 151.20691 1975 ft 131 kts 349°
2026-04-25 21:17 -34.05645 151.20461 1885 ft 130 kts 349°
2026-04-25 21:17 -34.04758 151.20231 1701 ft 130 kts 349°
2026-04-25 21:17 -34.04170 151.20078 1581 ft 130 kts 348°
2026-04-25 21:17 -34.03288 151.19850 1407 ft 129 kts 348°
2026-04-25 21:18 -34.02406 151.19623 1237 ft 129 kts 347°
2026-04-25 21:18 -34.01529 151.19395 1066 ft 129 kts 347°
2026-04-25 21:18 -34.00648 151.19168 893 ft 129 kts 346°
2026-04-25 21:18 -33.99772 151.18940 721 ft 128 kts 346°
2026-04-25 21:19 -33.98895 151.18710 552 ft 130 kts 346°
2026-04-25 21:19 -33.98008 151.18478 372 ft 131 kts 346°
2026-04-25 21:19 -33.97136 151.18254 229 ft 130 kts 347°
2026-04-25 21:19 -33.96251 151.18025 101 ft 130 kts 345°
2026-04-25 21:20 -33.95409 151.17791 29 ft 109 kts 350°
2026-04-25 21:20 -33.94983 151.17688 28 ft 73 kts 347°
2026-04-25 21:20 -33.94608 151.17652 29 ft 24 kts 11°
2026-04-25 21:20 -33.94490 151.17695 30 ft 13 kts 16°
2026-04-25 21:21 -33.94394 151.17730 30 ft 16 kts 17°
2026-04-25 21:21 -33.94283 151.17720 30 ft 6 kts 344°
2026-04-25 21:21 -33.94231 151.17702 29 ft 10 kts 344°
2026-04-25 21:21 -33.94153 151.17677 29 ft 14 kts 345°
2026-04-25 21:22 -33.94046 151.17651 28 ft 18 kts 347°
2026-04-25 21:22 -33.93949 151.17624 29 ft 10 kts 347°
2026-04-25 21:22 -33.93902 151.17610 29 ft 8 kts 347°
2026-04-25 21:22 -33.93869 151.17658 29 ft 9 kts 71°
2026-04-25 21:23 -33.93843 151.17739 30 ft 11 kts 53°
2026-04-25 21:23 -33.93765 151.17776 30 ft 3 kts 13°
2026-04-25 21:23 -33.93740 151.17783 30 ft 5 kts 13°
2026-04-25 21:23 -33.93695 151.17796 30 ft 8 kts 13°
2026-04-25 21:24 -33.93642 151.17812 30 ft 7 kts 19°
2026-04-25 21:24 -33.93585 151.17828 30 ft 10 kts
2026-04-25 21:24 -33.93572 151.17826 29 ft 0 kts 330°
2026-04-25 21:24 -33.93568 151.17818 29 ft 2 kts 307°
2026-04-25 21:25 -33.93567 151.17788 30 ft 5 kts 270°
2026-04-25 21:25 -33.93565 151.17773 30 ft 2 kts 280°
2026-04-25 21:25 -33.93563 151.17761 30 ft 2 kts 280°
2026-04-25 21:25 -33.93562 151.17756 30 ft 0 kts 280°